Location: Helstorf
(52.5868°N, 9.5862°E)
Time: 04:46:42
(UTC+00:00)

Helios 1A Rocket - Pass Details

Date: 15 May 2026
Orbit: 400 x 410 km, 98.3° (Epoch: 6 June)

Event Time Altitude Azimuth Distance (km) Brightness Sun altitude
Rises 20:03:07 0° 11° (N) 2,346 6.5 -6.9°
Reaches altitude 10° 20:05:08 10° 7° (N) 1,477 5.6 -7.1°
Maximum altitude 20:08:13 54° 289° (WNW) 503 3.1 -7.4°
Drops below altitude 10° 20:11:15 10° 212° (SSW) 1,456 4.8 -7.8°
Sets 20:13:14 0° 207° (SSW) 2,308 5.8 -8.0°
